Location: Wavehorne
(51.0500°N, 0.8333°E)
Time: 14:50:45
(UTC+00:00)

IRIDIUM 104 - Pass Details

Date: 20 June 2021
Orbit: 776 x 779 km, 86.4° (Epoch: 01 August)

Event Time Altitude Azimuth Distance (km) Brightness Sun altitude
Rises 02:35:43 0° 353° (N) 3,276 8.4 -7.9°
Reaches altitude 10° 02:38:05 10° 351° (N) 2,343 7.5 -7.6°
Maximum altitude 02:43:17 66° 270° (W) 849 4.4 -7.1°
Drops below altitude 10° 02:48:26 10° 189° (S) 2,323 6.3 -6.6°
Enters shadow 02:50:01 - 187° (S) 2,945 6.8 -6.5°
